Weather History for Hermosillo, Mexico

Change the Weather History Date:

Thursday, January 3, 2013

  Actual Average Record
Temperature  
Mean Temperature 54 °F -  
Max Temperature 69 °F 75 °F 89 °F (2012)
Min Temperature 40 °F 45 °F 39 °F (2000)
Degree Days  
Heating Degree Days 10    
Growing Degree Days 4 (Base 50)    
Moisture  
Dew Point 35 °F    
Average Humidity 49    
Maximum Humidity 76    
Minimum Humidity 23    
Precipitation  
Precipitation 0.00 in - - ()
Sea Level Pressure  
Sea Level Pressure 30.03 in    
Wind  
Wind Speed 1 mph ()    
Max Wind Speed 8 mph    
Max Gust Speed -    
Visibility 9.7 miles    
Events      
Averages and records for this station are not official NWS values.
T = Trace of Precipitation, MM = Missing Value Source: Averaged Metar Reports

Daily Weather History Graph

Daily Weather History Graph

Search for Another Location

Airport:

Trip Planner

Search our weather history database for the weather conditions in past years. The results will help you decide how hot, cold, wet, or windy it might be!

Date:

Astronomy

Jan. 03, 2013 Rise Set
Actual Time 7:18 AM MST 5:39 PM MST
Civil Twilight 6:52 AM MST 6:05 PM MST
Nautical Twilight 6:23 AM MST 6:34 PM MST
Astronomical Twilight 5:54 AM MST 7:03 PM MST
Moon 11:44 PM MST (1/3) 11:02 AM MST (1/3)
Length of Visible Light 11h 12m
Length of Day
10h 20m
Waning Gibbous, 65% of the Moon is Illuminated
Jan 3
Waning Gibbous
Jan 4
Last Quarter
Jan 11
New
Jan 18
First Quarter
Jan 26
Full

Hourly Weather History & Observations

Time (MST) Temp. Windchill Dew Point Humidity Pressure Visibility Wind Dir Wind Speed Gust Speed Precip Events Conditions
12:42 AM 48.2 °F - 37.4 °F 66% 29.94 in 10.0 mi Calm Calm - N/A   Clear
1:43 AM 46.4 °F - 37.4 °F 71% 29.95 in 10.0 mi Calm Calm - N/A   Clear
2:42 AM 44.6 °F - 35.6 °F 71% 29.94 in 10.0 mi Calm Calm - N/A   Clear
3:42 AM 44.6 °F - 35.6 °F 71% 29.94 in 10.0 mi Calm Calm - N/A   Clear
4:45 AM 42.8 °F - 35.6 °F 76% 29.96 in 10.0 mi Calm Calm - N/A   Clear
5:43 AM 42.8 °F 40.1 °F 35.6 °F 76% 29.96 in 10.0 mi NE 4.6 mph - N/A   Clear
6:43 AM 41.0 °F - 33.8 °F 76% 29.99 in 10.0 mi Calm Calm - N/A   Clear
7:47 AM 44.6 °F - 35.6 °F 71% 30.04 in 10.0 mi Calm Calm - N/A   Clear
8:43 AM 51.8 °F - 37.4 °F 58% 30.04 in 10.0 mi Calm Calm - N/A   Clear
9:40 AM 55.4 °F - 35.6 °F 47% 30.06 in 10.0 mi East 8.1 mph - N/A   Clear
10:30 AM 56 °F - 44 °F 55% 30.06 in 7 mi East 4.5 mph - -  
10:40 AM 59.0 °F - 33.8 °F 39% 30.05 in 10.0 mi ESE 5.8 mph - N/A   Clear
11:43 AM 60.8 °F - 32.0 °F 34% 30.06 in 10.0 mi Calm Calm - N/A   Clear
12:44 PM 64.4 °F - 32.0 °F 30% 30.03 in 10.0 mi Calm Calm - N/A   Clear
1:45 PM 65 °F - 41 °F 30% 30.01 in 7 mi SW 2.2 mph - -  
1:51 PM 66.2 °F - 32.0 °F 28% 30.03 in 10.0 mi Calm Calm - N/A   Clear
2:41 PM 68.0 °F - 30.2 °F 24% 30.02 in 10.0 mi Calm Calm - N/A   Clear
3:41 PM 68.0 °F - 30.2 °F 24% 30.03 in 10.0 mi West 4.6 mph - N/A   Clear
4:35 PM 68 °F - 39 °F 24% 30.03 in 7 mi SW 2.2 mph - -  
4:41 PM 68.0 °F - 28.4 °F 23% 30.04 in 10.0 mi Calm Calm - N/A   Clear
5:41 PM 64.4 °F - 30.2 °F 28% 30.05 in 10.0 mi SSW 5.8 mph - N/A   Clear
6:41 PM 59.0 °F - 32.0 °F 36% 30.06 in 10.0 mi Calm Calm - N/A   Clear
7:41 PM 57.2 °F - 32.0 °F 38% 30.06 in 10.0 mi Calm Calm - N/A   Clear
8:41 PM 51.8 °F - 33.8 °F 50% 30.08 in 10.0 mi Calm Calm - N/A   Clear
9:41 PM 50.0 °F - 33.8 °F 54% 30.09 in 10.0 mi Calm Calm - N/A   Clear
10:40 PM 48.2 °F - 33.8 °F 58% 30.11 in 10.0 mi Calm Calm - N/A   Clear
11:41 PM 48.2 °F - 33.8 °F 58% 30.11 in 10.0 mi Calm Calm - N/A   Clear